Pineville, WV

9:07 AM EDT on July 26, 2017 (GMT -0400)
Pineville

Weather History for KI16 - July, 2012

Change the Weather History Date:

Saturday, July 21, 2012

  Actual Average (KBKW) Record (KBKW)
Temperature  
Mean Temperature 78 °F -  
Max Temperature 86 °F 81 °F 103 °F (1926)
Min Temperature 68 °F 61 °F 42 °F (1951)
Cooling Degree Days 12    
Growing Degree Days 28 (Base 50)    
Moisture  
Dew Point 71 °F    
Average Humidity 85    
Maximum Humidity 100    
Minimum Humidity 61    
Precipitation  
Precipitation 0.00 in - - ()
Sea Level Pressure  
Sea Level Pressure 30.12 in    
Wind  
Wind Speed - (North)    
Max Wind Speed -    
Max Gust Speed -    
Visibility 7 miles    
Events Rain    
Averages and records for this station are not official NWS values.
T = Trace of Precipitation, MM = Missing Value Source: NWS Daily Summary

Daily Weather History Graph

Daily Weather History Graph

Search for Another Location

Airport or City:

Trip Planner

Search our weather history database for the weather conditions in past years. The results will help you decide how hot, cold, wet, or windy it might be!

Date:

Astronomy

Jul. 21, 2012 Rise Set
Actual Time 6:21 AM EDT 8:43 PM EDT
Civil Twilight 5:51 AM EDT 9:13 PM EDT
Nautical Twilight 5:14 AM EDT 9:49 PM EDT
Astronomical Twilight 4:34 AM EDT 10:30 PM EDT
Moon 8:56 AM EDT (7/21) 9:59 PM EDT (7/21)
Length of Visible Light 15h 21m
Length of Day
14h 21m
Waxing Crescent, 7% of the Moon is Illuminated
Jul 21
Waxing Crescent
Jul 26
First Quarter
Aug 1
Full
Aug 9
Last Quarter
Aug 17
New

Hourly Weather History & Observations

Time (EDT) Temp. Heat Index Dew Point Humidity Pressure Visibility Wind Dir Wind Speed Gust Speed Precip Events Conditions
12:15 AM 72.0 °F - 72.0 °F 100% 30.05 in 4.0 mi North - - N/A Rain Light Rain
12:35 AM 72.0 °F - 72.0 °F 100% 30.06 in 3.0 mi North - - N/A   Overcast
12:55 AM 72.0 °F - 72.0 °F 100% 30.06 in 5.0 mi North - - N/A   Overcast
1:15 AM 72.0 °F - 72.0 °F 100% 30.05 in 5.0 mi North - - N/A   Overcast
1:35 AM 71.8 °F - 71.8 °F 100% 30.06 in 4.0 mi North - - N/A   Overcast
1:55 AM 72.1 °F - 72.1 °F 100% 30.05 in 7.0 mi North - - N/A   Overcast
2:35 AM 72.5 °F - 72.5 °F 100% 30.06 in 7.0 mi North - - N/A   Overcast
2:55 AM 72.5 °F - 72.5 °F 100% 30.06 in 7.0 mi North - - N/A   Overcast
4:15 AM 72.0 °F - 72.0 °F 100% 30.06 in 2.5 mi North - - N/A   Overcast
4:35 AM 72.0 °F - 72.0 °F 100% 30.06 in 2.5 mi North - - N/A   Overcast
4:55 AM 72.1 °F - 72.1 °F 100% 30.08 in 3.0 mi North - - N/A   Overcast
5:15 AM 72.0 °F - 72.0 °F 100% 30.08 in 3.0 mi North - - N/A   Overcast
5:35 AM 72.0 °F - 72.0 °F 100% 30.08 in 3.0 mi North - - N/A   Overcast
5:55 AM 72.0 °F - 72.0 °F 100% 30.09 in 2.5 mi North - - N/A   Overcast
6:15 AM 72.0 °F - 72.0 °F 100% 30.09 in 2.5 mi North - - N/A   Overcast
6:55 AM 72.5 °F - 72.5 °F 100% 30.10 in 4.0 mi North - - N/A   Overcast
7:15 AM 72.5 °F - 72.5 °F 100% 30.11 in 3.0 mi North - - N/A   Overcast
7:55 AM 73.0 °F - 73.0 °F 100% 30.11 in 4.0 mi North - - N/A   Overcast
8:55 AM 75.6 °F - 72.9 °F 91% 30.12 in 7.0 mi North - - N/A   Overcast
9:15 AM 75.6 °F - 72.5 °F 90% 30.12 in 7.0 mi North - - N/A   Overcast
9:35 AM 76.8 °F - 72.7 °F 87% 30.12 in 7.0 mi North - - N/A   Overcast
9:55 AM 77.0 °F - 72.0 °F 84% 30.12 in 10.0 mi North - - N/A   Overcast
10:15 AM 77.9 °F - 72.3 °F 83% 30.13 in 10.0 mi North - - N/A   Overcast
10:35 AM 77.2 °F - 72.0 °F 84% 30.13 in 10.0 mi North - - N/A   Overcast
11:15 AM 79.2 °F - 71.6 °F 78% 30.14 in 10.0 mi North - - N/A   Overcast
11:55 AM 79.3 °F - 71.6 °F 77% 30.15 in 10.0 mi North - - N/A   Mostly Cloudy
12:15 PM 81.1 °F 85.4 °F 71.8 °F 73% 30.15 in 10.0 mi North - - N/A   Mostly Cloudy
12:55 PM 80.2 °F 83.6 °F 70.5 °F 72% 30.15 in 10.0 mi North - - N/A   Mostly Cloudy
1:15 PM 81.7 °F 85.6 °F 70.5 °F 69% 30.15 in 10.0 mi North - - N/A   Mostly Cloudy
1:35 PM 84.0 °F 89.3 °F 71.4 °F 66% 30.15 in 10.0 mi North - - N/A   Mostly Cloudy
2:15 PM 84.2 °F 89.6 °F 71.6 °F 66% 30.15 in 10.0 mi North - - N/A   Mostly Cloudy
2:35 PM 84.2 °F 89.0 °F 70.7 °F 64% 30.15 in 10.0 mi North - - N/A   Mostly Cloudy
2:55 PM 85.3 °F 90.4 °F 70.9 °F 62% 30.14 in 10.0 mi North - - N/A   Scattered Clouds
3:15 PM 86.4 °F 92.2 °F 71.2 °F 61% 30.14 in 10.0 mi North - - N/A   Scattered Clouds
3:35 PM 85.1 °F 90.1 °F 70.7 °F 62% 30.14 in 10.0 mi North - - N/A   Mostly Cloudy
4:15 PM 84.0 °F 89.0 °F 71.2 °F 65% 30.14 in 10.0 mi North - - N/A   Scattered Clouds
4:35 PM 83.5 °F 88.0 °F 70.7 °F 65% 30.14 in 10.0 mi North - - N/A   Mostly Cloudy
4:55 PM 85.1 °F 90.4 °F 71.1 °F 63% 30.13 in 10.0 mi North - - N/A   Scattered Clouds
5:15 PM 85.8 °F 91.5 °F 71.2 °F 62% 30.13 in 10.0 mi North - - N/A   Scattered Clouds
5:35 PM 84.0 °F 89.3 °F 71.6 °F 66% 30.13 in 10.0 mi North - - N/A   Scattered Clouds
5:55 PM 83.7 °F 88.0 °F 70.5 °F 64% 30.13 in 10.0 mi North - - N/A   Clear
6:15 PM 81.0 °F 85.2 °F 72.0 °F 74% 30.13 in 10.0 mi North - - N/A   Scattered Clouds
6:35 PM 83.3 °F 87.6 °F 70.5 °F 65% 30.12 in 10.0 mi North - - N/A   Scattered Clouds
6:55 PM 80.8 °F 84.7 °F 71.2 °F 73% 30.13 in 10.0 mi North - - N/A   Clear
7:15 PM 80.4 °F 83.8 °F 70.3 °F 71% 30.13 in 10.0 mi North - - N/A   Clear
7:35 PM 78.3 °F - 71.2 °F 79% 30.13 in 10.0 mi North - - N/A   Clear
8:15 PM 75.2 °F - 72.5 °F 91% 30.15 in 5.0 mi North - - N/A   Clear
8:35 PM 73.9 °F - 71.8 °F 93% 30.15 in 5.0 mi North - - N/A   Clear
9:35 PM 70.9 °F - 70.3 °F 98% 30.18 in 4.0 mi North - - N/A   Clear
9:55 PM 70.7 °F - 70.0 °F 98% 30.18 in 4.0 mi North - - N/A   Clear
10:15 PM 70.2 °F - 69.8 °F 99% 30.19 in 3.0 mi North - - N/A   Clear
10:35 PM 69.8 °F - 69.4 °F 99% 30.20 in 3.0 mi North - - N/A   Clear
10:55 PM 69.8 °F - 69.6 °F 99% 30.20 in 4.0 mi North - - N/A   Clear
11:15 PM 69.3 °F - 69.1 °F 99% 30.20 in 3.0 mi North - - N/A   Scattered Clouds
11:35 PM 68.9 °F - 68.9 °F 100% 30.20 in 4.0 mi North - - N/A   Clear